• In Hungary
  • List of Countries
  • For 7 days
  • Water Temperature
  • Satellite Maps
  • Weather Map
  • News
  • Weather Widgets
  • user-avatar
    Login

    Hourly Weather Wodka

    Today, 24 October, Wednesday

    Time Temperature Precipitation Wind Pressure Humidity
    00:00 +9°C° 1 mm 8 mps 724 mmHg 81%
    01:00 +9°C° 1 mm 8 mps 724 mmHg 82%
    02:00 +9°C° 1.2 mm 8 mps 723 mmHg 81%
    03:00 +7°C° 1.2 mm 8 mps 723 mmHg 80%
    04:00 +7°C° 1.2 mm 8 mps 723 mmHg 80%
    05:00 +6°C° 0.6 mm 8 mps 723 mmHg 78%
    06:00 +6°C° 0.6 mm 8 mps 723 mmHg 76%
    07:00 +5°C° 0.6 mm 8 mps 724 mmHg 74%
    08:00 +5°C° 0.1 mm 9 mps 725 mmHg 69%
    09:00 +5°C° 0.1 mm 9 mps 725 mmHg 64%
    10:00 +5°C° 0.1 mm 10 mps 726 mmHg 59%
    11:00 +5°C° 0.1 mm 10 mps 727 mmHg 58%
    12:00 +5°C° 0.1 mm 10 mps 727 mmHg 58%
    13:00 +5°C° 0.1 mm 9 mps 727 mmHg 57%
    14:00 +5°C° 0.1 mm 9 mps 728 mmHg 57%
    15:00 +5°C° 0.1 mm 8 mps 728 mmHg 58%
    16:00 +5°C° 0.1 mm 7 mps 729 mmHg 58%
    17:00 +4°C° 0 mm 7 mps 730 mmHg 60%
    18:00 +3°C° 0 mm 6 mps 730 mmHg 63%
    19:00 +3°C° 0 mm 6 mps 731 mmHg 66%
    20:00 +3°C° 0 mm 5 mps 731 mmHg 67%
    21:00 +2°C° 0 mm 5 mps 732 mmHg 69%
    22:00 +3°C° 0 mm 4 mps 732 mmHg 71%
    23:00 +1°C° 0 mm 4 mps 732 mmHg 74%

    Tomorrow, 25 October, Thursday

    Time Temperature Precipitation Wind Pressure Humidity
    00:00 +2°C° 0 mm 3 mps 732 mmHg 77%
    01:00 +2°C° 0 mm 3 mps 732 mmHg 80%
    02:00 +2°C° 0 mm 3 mps 732 mmHg 79%
    03:00 +2°C° 0 mm 3 mps 732 mmHg 79%
    04:00 +3°C° 0 mm 3 mps 731 mmHg 79%
    05:00 +3°C° 0.3 mm 3 mps 731 mmHg 81%
    06:00 +4°C° 0.3 mm 4 mps 730 mmHg 83%
    07:00 +5°C° 0.3 mm 4 mps 729 mmHg 85%
    08:00 +7°C° 0.3 mm 5 mps 729 mmHg 82%
    09:00 +9°C° 0.3 mm 6 mps 729 mmHg 79%
    10:00 +10°C° 0.3 mm 7 mps 729 mmHg 76%
    11:00 +11°C° 0.1 mm 7 mps 728 mmHg 74%
    12:00 +11°C° 0.1 mm 7 mps 728 mmHg 72%
    13:00 +11°C° 0.1 mm 7 mps 728 mmHg 70%
    14:00 +11°C° 0.1 mm 7 mps 728 mmHg 72%
    15:00 +10°C° 0.1 mm 6 mps 728 mmHg 74%
    16:00 +10°C° 0.1 mm 5 mps 728 mmHg 76%
    17:00 +9°C° 0.1 mm 5 mps 728 mmHg 78%
    18:00 +9°C° 0.1 mm 5 mps 728 mmHg 80%
    19:00 +9°C° 0.1 mm 5 mps 729 mmHg 82%
    20:00 +9°C° 0.2 mm 5 mps 729 mmHg 83%
    21:00 +8°C° 0.2 mm 4 mps 729 mmHg 83%
    22:00 +8°C° 0.2 mm 4 mps 729 mmHg 84%
    23:00 +9°C° 0.1 mm 3 mps 730 mmHg 85%

    Day after tomorrow, 26 October, Friday

    Time Temperature Precipitation Wind Pressure Humidity
    00:00 +8°C° 0.1 mm 3 mps 730 mmHg 86%
    01:00 +8°C° 0.1 mm 2 mps 730 mmHg 86%
    02:00 +8°C° 0 mm 2 mps 730 mmHg 87%
    03:00 +8°C° 0 mm 2 mps 730 mmHg 89%
    04:00 +7°C° 0 mm 2 mps 729 mmHg 90%
    05:00 +7°C° 0 mm 2 mps 729 mmHg 90%
    06:00 +7°C° 0 mm 2 mps 729 mmHg 90%
    07:00 +7°C° 0 mm 2 mps 729 mmHg 90%
    08:00 +9°C° 0 mm 3 mps 729 mmHg 85%
    09:00 +10°C° 0 mm 3 mps 729 mmHg 80%
    10:00 +11°C° 0 mm 3 mps 729 mmHg 75%
    11:00 +11°C° 0 mm 4 mps 729 mmHg 72%
    12:00 +12°C° 0 mm 4 mps 728 mmHg 68%
    13:00 +13°C° 0 mm 5 mps 728 mmHg 65%
    14:00 +13°C° 0 mm 4 mps 727 mmHg 67%
    15:00 +12°C° 0 mm 4 mps 727 mmHg 69%
    16:00 +12°C° 0 mm 4 mps 726 mmHg 72%
    17:00 +11°C° 0 mm 4 mps 726 mmHg 74%
    18:00 +10°C° 0 mm 4 mps 726 mmHg 76%
    19:00 +9°C° 0 mm 5 mps 726 mmHg 78%
    20:00 +8°C° 0 mm 4 mps 726 mmHg 79%
    21:00 +8°C° 0 mm 4 mps 726 mmHg 80%
    22:00 +7°C° 0 mm 4 mps 726 mmHg 81%
    23:00 +7°C° 0 mm 4 mps 726 mmHg 80%

    27 October, Saturday

    Time Temperature Precipitation Wind Pressure Humidity
    00:00 +7°C° 0 mm 4 mps 726 mmHg 80%
    01:00 +7°C° 0 mm 5 mps 726 mmHg 79%
    02:00 +6°C° 0 mm 4 mps 726 mmHg 78%
    03:00 +6°C° 0 mm 4 mps 727 mmHg 77%
    04:00 +6°C° 0 mm 4 mps 727 mmHg 76%
    05:00 +6°C° 0 mm 4 mps 727 mmHg 75%
    06:00 +5°C° 0 mm 3 mps 728 mmHg 73%
    07:00 +4°C° 0 mm 3 mps 728 mmHg 72%
    08:00 +5°C° 0 mm 3 mps 728 mmHg 67%
    09:00 +7°C° 0 mm 3 mps 729 mmHg 62%
    10:00 +7°C° 0 mm 3 mps 729 mmHg 57%
    11:00 +7°C° 0 mm 3 mps 729 mmHg 55%
    12:00 +8°C° 0 mm 3 mps 729 mmHg 54%
    13:00 +8°C° 0 mm 2 mps 729 mmHg 53%
    14:00 +8°C° 0 mm 2 mps 729 mmHg 55%
    15:00 +9°C° 0 mm 1 mps 729 mmHg 58%
    16:00 +8°C° 0 mm 1 mps 729 mmHg 60%
    17:00 +8°C° 0 mm 1 mps 729 mmHg 61%
    18:00 +6°C° 0 mm 0 mps 729 mmHg 63%
    19:00 +6°C° 0 mm 0 mps 730 mmHg 64%
    20:00 +6°C° 0 mm 0 mps 730 mmHg 65%
    21:00 +7°C° 0 mm 1 mps 730 mmHg 67%
    22:00 +7°C° 0 mm 1 mps 730 mmHg 68%
    23:00 +7°C° 0 mm 1 mps 730 mmHg 69%

    28 October, Sunday

    Time Temperature Precipitation Wind Pressure Humidity
    00:00 +6°C° 0 mm 1 mps 730 mmHg 70%
    01:00 +5°C° 0 mm 2 mps 730 mmHg 71%
    02:00 +5°C° 0.1 mm 2 mps 730 mmHg 73%
    03:00 +5°C° 0.1 mm 2 mps 730 mmHg 75%
    04:00 +4°C° 0.1 mm 3 mps 730 mmHg 77%
    05:00 +4°C° 0.3 mm 3 mps 730 mmHg 78%
    06:00 +4°C° 0.3 mm 3 mps 730 mmHg 79%
    07:00 +4°C° 0.3 mm 4 mps 730 mmHg 80%
    08:00 +4°C° 0.5 mm 4 mps 730 mmHg 80%
    09:00 +4°C° 0.5 mm 4 mps 729 mmHg 80%
    10:00 +3°C° 0.5 mm 5 mps 729 mmHg 80%
    11:00 +3°C° 0.7 mm 5 mps 729 mmHg 82%
    12:00 +3°C° 0.7 mm 5 mps 729 mmHg 84%
    13:00 +3°C° 0.7 mm 5 mps 729 mmHg 86%
    14:00 +3°C° 1 mm 5 mps 729 mmHg 87%
    15:00 +4°C° 1 mm 4 mps 729 mmHg 88%
    16:00 +3°C° 1 mm 4 mps 728 mmHg 89%
    17:00 +3°C° 1.6 mm 4 mps 728 mmHg 90%
    18:00 +3°C° 1.6 mm 4 mps 728 mmHg 90%
    19:00 +2°C° 1.6 mm 5 mps 728 mmHg 90%
    20:00 +3°C° 2.5 mm 4 mps 728 mmHg 91%
    21:00 +3°C° 2.5 mm 4 mps 728 mmHg 92%
    22:00 +3°C° 2.5 mm 4 mps 728 mmHg 92%
    23:00 +3°C° 2 mm 4 mps 728 mmHg 92%

    29 October, Monday

    Time Temperature Precipitation Wind Pressure Humidity
    00:00 +3°C° 2 mm 4 mps 728 mmHg 92%
    01:00 +3°C° 2 mm 4 mps 727 mmHg 92%
    02:00 +3°C° 1.5 mm 4 mps 727 mmHg 93%
    03:00 +3°C° 1.5 mm 4 mps 727 mmHg 93%
    04:00 +3°C° 1.5 mm 4 mps 726 mmHg 93%
    05:00 +3°C° 1.2 mm 4 mps 726 mmHg 93%
    06:00 +3°C° 1.2 mm 4 mps 726 mmHg 93%
    07:00 +3°C° 1.2 mm 4 mps 726 mmHg 93%
    08:00 +4°C° 1.4 mm 4 mps 726 mmHg 93%
    09:00 +4°C° 1.4 mm 4 mps 726 mmHg 93%
    10:00 +4°C° 1.4 mm 4 mps 726 mmHg 93%
    11:00 +4°C° 1.8 mm 4 mps 726 mmHg 93%
    12:00 +4°C° 1.8 mm 4 mps 726 mmHg 93%
    13:00 +4°C° 1.8 mm 4 mps 726 mmHg 93%
    14:00 +4°C° 1.3 mm 4 mps 726 mmHg 93%
    15:00 +4°C° 1.3 mm 4 mps 727 mmHg 93%
    16:00 +4°C° 1.3 mm 4 mps 727 mmHg 93%
    17:00 +4°C° 0.1 mm 4 mps 727 mmHg 93%
    18:00 +4°C° 0.1 mm 4 mps 728 mmHg 93%
    19:00 +4°C° 0.1 mm 4 mps 728 mmHg 92%
    20:00 +3°C° 0.1 mm 4 mps 728 mmHg 92%
    21:00 +3°C° 0.1 mm 4 mps 728 mmHg 92%
    22:00 +3°C° 0.1 mm 4 mps 728 mmHg 92%
    23:00 +3°C° 0.1 mm 4 mps 728 mmHg 92%
    Show more